Location: Unspecified
(38.9820°N, 94.4650°W)
Time: 22:38:26
(UTC-05:00)

Cosmos 1674 - Visible Passes

Search period start: 22 October 2019 00:00
Search period end: 01 November 2019 00:00
Orbit: 495 x 519 km, 82.5° (Epoch: 21 October)

Date Brightness Start Highest point End Pass type
(mag) Time Alt. Az. Time Alt. Az. Time Alt. Az.
22 Oct 2.8 06:06:58 10° S 06:10:39 74° E 06:14:22 10° N visible
23 Oct 3.4 05:49:25 10° S 05:53:01 53° E 05:56:39 10° NNE visible
24 Oct 4.0 05:31:56 10° SSE 05:35:23 38° E 05:38:52 10° NNE visible
25 Oct 4.6 05:16:16 21° SE 05:17:46 29° E 05:21:01 10° NNE visible
25 Oct 4.3 06:51:18 11° WSW 06:53:22 15° WNW 06:55:36 10° NW visible
26 Oct 5.2 05:01:09 20° ENE 05:01:09 20° ENE 05:03:05 10° NE visible
26 Oct 4.0 06:36:06 19° WNW 06:36:06 19° WNW 06:38:24 10° NNW visible
27 Oct 4.6 06:20:06 15° NNW 06:20:06 15° NNW 06:21:03 10° NNW visible
